GW3385 Weather Reports


time (UTC)temp
C
wind
direction
speed
KPH
gust
KPH
rain 1hr
cm
rain 24hr
cm
rain mn
cm
humidity
%
barometer
mb
20260831121609 18 0 0.0 4.8 0.00 0.00 0.00 88 1011.3
20260831121051 18 341 0.0 1.6 0.00 0.00 0.00 88 1011.3
20260831120552 18 0 0.0 1.6 0.00 0.00 0.00 87 1011.3
20260831120101 18 0 0.0 1.6 0.00 0.00 0.00 87 1011.3
20260831115551 18 0 0.0 0.0 0.00 0.00 0.00 87 1011.3
20260831115051 18 0 0.0 0.0 0.00 0.00 0.00 87 1011.3
20260831114608 18 0 0.0 0.0 0.00 0.00 0.00 87 1011.3
20260831114056 18 0 0.0 3.2 0.00 0.00 0.00 87 1011.2
20260831113556 18 0 0.0 3.2 0.00 0.00 0.00 87 1011.2
20260831113105 18 0 0.0 3.2 0.00 0.00 0.00 87 1011.2
20260831112556 18 0 0.0 4.8 0.00 0.00 0.00 87 1011.2
20260831112052 18 0 0.0 4.8 0.00 0.00 0.00 87 1011.3
20260831111600 18 0 0.0 4.8 0.00 0.00 0.00 86 1011.3
20260831111052 18 0 1.6 4.8 0.00 0.00 0.00 86 1011.3
20260831110554 18 0 0.0 3.2 0.00 0.00 0.00 85 1011.3
20260831105556 19 0 0.0 1.6 0.00 0.00 0.00 85 1011.4
20260831105054 19 0 0.0 3.2 0.00 0.00 0.00 85 1011.3
20260831104611 19 0 0.0 3.2 0.00 0.00 0.00 85 1011.4
20260831104056 19 0 0.0 3.2 0.00 0.00 0.00 84 1011.4
20260831103555 19 0 0.0 0.0 0.00 0.00 0.00 84 1011.4
20260831103056 19 0 0.0 0.0 0.00 0.00 0.00 84 1011.4
20260831102555 19 0 0.0 0.0 0.00 0.00 0.00 84 1011.4
20260831102055 20 0 0.0 0.0 0.00 0.00 0.00 84 1011.5
20260831101607 20 0 0.0 3.2 0.00 0.00 0.00 84 1011.4
20260831101051 20 0 0.0 3.2 0.00 0.00 0.00 84 1011.4
20260831100552 20 0 0.0 3.2 0.00 0.00 0.00 83 1011.4
20260831100118 20 0 0.0 1.6 0.00 0.00 0.00 83 1011.6
20260831095552 20 0 0.0 1.6 0.00 0.00 0.00 83 1011.6
20260831095052 20 0 0.0 3.2 0.00 0.00 0.00 82 1011.5
20260831094557 20 0 0.0 3.2 0.00 0.00 0.00 82 1011.4
20260831094057 20 0 0.0 1.6 0.00 0.00 0.00 82 1011.4
20260831093556 20 0 0.0 3.2 0.00 0.00 0.00 82 1011.4
20260831093108 20 0 0.0 8.0 0.00 0.00 0.00 82 1011.4
20260831092555 20 0 0.0 8.0 0.00 0.00 0.00 82 1011.4
20260831092056 20 185 1.6 8.0 0.00 0.00 0.00 82 1011.3
20260831091603 20 0 0.0 3.2 0.00 0.00 0.00 81 1011.4
20260831091052 20 0 0.0 3.2 0.00 0.00 0.00 81 1011.4
20260831090552 20 0 0.0 0.0 0.00 0.00 0.00 81 1011.5
20260831090056 20 0 0.0 1.6 0.00 0.00 0.00 81 1011.5
20260831085557 20 0 0.0 4.8 0.00 0.00 0.00 82 1011.6
20260831085056 20 0 1.6 4.8 0.00 0.00 0.00 82 1011.5
20260831084611 20 78 1.6 4.8 0.00 0.00 0.00 82 1011.5
20260831084055 20 0 0.0 0.0 0.00 0.00 0.00 82 1011.5
20260831083555 20 0 0.0 0.0 0.00 0.00 0.00 82 1011.5
20260831083108 20 0 0.0 0.0 0.00 0.00 0.00 83 1011.4
20260831082552 20 0 0.0 4.8 0.00 0.00 0.00 83 1011.5
20260831082055 20 0 0.0 4.8 0.00 0.00 0.00 83 1011.5
20260831081601 20 84 0.0 4.8 0.00 0.00 0.00 84 1011.4
20260831081052 20 0 0.0 3.2 0.00 0.00 0.00 84 1011.4
20260831080555 20 0 0.0 3.2 0.00 0.00 0.00 84 1011.5
20260831080105 20 63 0.0 3.2 0.00 0.00 0.00 84 1011.6
20260831075556 20 0 0.0 3.2 0.00 0.00 0.00 84 1011.5
20260831075056 20 63 0.0 3.2 0.00 0.00 0.00 84 1011.6
20260831074557 20 63 0.0 0.0 0.00 0.00 0.00 84 1011.4
20260831074055 20 0 0.0 3.2 0.00 0.00 0.00 84 1011.3
20260831073555 20 0 0.0 3.2 0.00 0.00 0.00 84 1011.4
20260831073105 20 0 0.0 0.0 0.00 0.00 0.00 84 1011.2
20260831072555 20 0 0.0 0.0 0.00 0.00 0.00 84 1011.2
20260831072052 20 0 0.0 0.0 0.00 0.00 0.00 84 1011.1
20260831071609 20 0 0.0 0.0 0.00 0.00 0.00 84 1011.1
20260831071052 20 0 0.0 0.0 0.00 0.00 0.00 83 1011.1
20260831070556 20 0 0.0 0.0 0.00 0.00 0.00 83 1011.2
20260831070116 20 0 0.0 0.0 0.00 0.00 0.00 83 1011.1
20260831065555 20 0 0.0 3.2 0.00 0.00 0.00 83 1011.1
20260831065058 20 0 0.0 3.2 0.00 0.00 0.00 82 1011.2
20260831064604 20 0 0.0 4.8 0.00 0.00 0.00 82 1011.2
20260831064051 20 0 0.0 6.4 0.00 0.00 0.00 82 1011.2
20260831063552 20 91 3.2 6.4 0.00 0.00 0.00 81 1011.1
20260831063100 20 90 1.6 4.8 0.00 0.00 0.00 82 1011.1
20260831062558 20 0 0.0 0.0 0.00 0.00 0.00 82 1011.2
20260831062057 20 0 0.0 0.0 0.00 0.00 0.00 82 1011.2
20260831061557 20 0 0.0 3.2 0.00 0.00 0.00 82 1011.3
20260831061056 20 0 0.0 3.2 0.00 0.00 0.00 82 1011.3
20260831060555 21 0 0.0 3.2 0.00 0.00 0.00 81 1011.2
20260831060059 21 0 0.0 0.0 0.00 0.00 0.00 82 1011.3
20260831055552 21 0 0.0 0.0 0.00 0.00 0.00 82 1011.3
20260831055055 21 0 0.0 4.8 0.00 0.00 0.00 82 1011.2
20260831054605 21 0 0.0 4.8 0.00 0.00 0.00 82 1011.2
20260831054052 21 107 0.0 1.6 0.00 0.00 0.00 82 1011.2
20260831053559 21 0 0.0 3.2 0.00 0.00 0.00 82 1011.3
20260831053101 21 0 0.0 4.8 0.00 0.00 0.00 81 1011.2
20260831052556 21 181 0.0 4.8 0.00 0.00 0.00 81 1011.1
20260831052055 21 0 0.0 4.8 0.00 0.00 0.00 81 1011.2
20260831051559 21 0 0.0 4.8 0.00 0.00 0.00 80 1011.1
20260831051055 21 0 0.0 4.8 0.00 0.00 0.00 80 1011.2
20260831050555 21 0 0.0 6.4 0.00 0.00 0.00 80 1011.2
20260831050059 21 0 0.0 6.4 0.00 0.00 0.00 79 1011.3
20260831045556 21 189 1.6 6.4 0.00 0.00 0.00 79 1011.3
20260831045056 21 0 0.0 6.4 0.00 0.00 0.00 79 1011.3
20260831044607 21 164 0.0 4.8 0.00 0.00 0.00 78 1011.3
20260831044055 21 0 0.0 0.0 0.00 0.00 0.00 78 1011.2
20260831043555 21 0 0.0 0.0 0.00 0.00 0.00 78 1011.2
20260831043058 21 0 0.0 0.0 0.00 0.00 0.00 78 1011.1
20260831042557 21 0 0.0 4.8 0.00 0.00 0.00 79 1011.0
20260831042056 21 0 0.0 4.8 0.00 0.00 0.00 79 1010.9
20260831041603 21 0 1.6 4.8 0.00 0.00 0.00 79 1010.9
20260831041056 21 197 1.6 4.8 0.00 0.00 0.00 78 1010.9
20260831040556 21 217 0.0 3.2 0.00 0.00 0.00 78 1010.9
20260831040108 21 0 0.0 4.8 0.00 0.00 0.00 78 1010.8
20260831035555 22 178 0.0 6.4 0.00 0.00 0.00 78 1010.8
20260831035052 22 0 1.6 6.4 0.00 0.00 0.00 78 1010.7
20260831034558 22 182 0.0 0.0 0.00 0.00 0.00 78 1010.6
20260831034058 22 0 0.0 0.0 0.00 0.00 0.00 78 1010.5
20260831033556 22 0 0.0 0.0 0.00 0.00 0.00 77 1010.3
20260831033102 22 0 0.0 0.0 0.00 0.00 0.00 77 1010.3
20260831032556 22 0 0.0 0.0 0.00 0.00 0.00 77 1010.2
20260831032058 22 0 0.0 0.0 0.00 0.00 0.00 78 1010.1
20260831031601 22 0 0.0 6.4 0.00 0.00 0.00 78 1010.1
20260831031059 22 0 0.0 6.4 0.00 0.00 0.00 78 1010.1
20260831030556 22 182 0.0 4.8 0.00 0.00 0.00 77 1010.0
20260831030121 22 0 1.6 6.4 0.00 0.00 0.00 77 1010.0
20260831025556 22 185 3.2 6.4 0.00 0.00 0.00 77 1010.1
20260831025056 23 0 1.6 4.8 0.00 0.00 0.00 76 1010.1
20260831024626 23 190 0.0 4.8 0.00 0.00 0.00 75 1010.1
20260831024056 23 0 1.6 4.8 0.00 0.00 0.00 75 1010.1
20260831023555 23 190 0.0 3.2 0.00 0.00 0.00 74 1010.0
20260831023128 23 0 0.0 6.4 0.00 0.00 0.00 73 1010.0
20260831022556 23 257 0.0 8.0 0.00 0.00 0.00 73 1009.9
20260831022056 23 0 1.6 11.3 0.00 0.00 0.00 73 1009.9
20260831021623 23 0 3.2 11.3 0.00 0.00 0.00 72 1009.9
20260831021052 23 198 6.4 12.9 0.00 0.00 0.00 72 1009.9
20260831020556 23 183 4.8 12.9 0.00 0.00 0.00 72 1009.8
20260831020116 23 164 3.2 8.0 0.00 0.00 0.00 72 1009.8
20260831015555 23 0 3.2 11.3 0.00 0.00 0.00 71 1009.8
20260831015055 23 180 4.8 14.5 0.00 0.00 0.00 71 1009.8
20260831014631 23 164 6.4 14.5 0.00 0.00 0.00 69 1009.7
20260831014055 24 203 6.4 14.5 0.00 0.00 0.00 70 1009.8
20260831013556 24 197 6.4 14.5 0.00 0.00 0.00 70 1009.9
20260831013102 24 234 3.2 14.5 0.00 0.00 0.00 71 1009.8
20260831012555 24 194 6.4 14.5 0.00 0.00 0.00 70 1009.8
20260831012052 24 162 8.0 14.5 0.00 0.00 0.00 69 1009.7
20260831011617 24 196 3.2 14.5 0.00 0.00 0.00 71 1009.8
20260831011051 24 174 6.4 16.1 0.00 0.00 0.00 70 1009.8
20260831010555 24 271 6.4 16.1 0.00 0.00 0.00 71 1009.7
20260831010106 24 315 4.8 16.1 0.00 0.00 0.00 73 1009.7
20260831005556 23 270 9.7 17.7 0.00 0.00 0.00 74 1009.7
20260831005058 23 285 4.8 17.7 0.00 0.00 0.00 74 1009.6
20260831004606 23 301 4.8 19.3 0.00 0.00 0.00 75 1009.7
20260831004056 23 189 9.7 22.5 0.00 0.00 0.00 73 1009.6
20260831003555 24 189 11.3 22.5 0.00 0.00 0.00 72 1009.6
20260831003105 24 273 8.0 20.9 0.00 0.00 0.00 72 1009.6
20260831002600 24 267 9.7 20.9 0.00 0.00 0.00 72 1009.7
20260831002055 25 272 6.4 17.7 0.00 0.00 0.00 71 1009.6
20260831001605 25 136 9.7 17.7 0.00 0.00 0.00 71 1009.5
20260831001120 25 227 4.8 17.7 0.00 0.00 0.00 72 1009.5
20260831000555 25 292 9.7 19.3 0.00 0.00 0.00 71 1009.5
20260831000105 25 188 6.4 19.3 0.00 0.00 0.00 71 1009.5
20260830235551 25 267 8.0 19.3 0.00 0.00 0.00 69 1009.7
20260830235056 25 261 11.3 19.3 0.00 0.00 0.00 67 1009.6
20260830234601 25 265 6.4 16.1 0.00 0.00 0.00 69 1009.6
20260830234055 25 180 6.4 20.9 0.00 0.00 0.00 67 1009.7
20260830233555 25 235 4.8 20.9 0.00 0.00 0.00 67 1009.6
20260830233108 25 294 14.5 20.9 0.00 0.00 0.00 65 1009.5
20260830232558 26 218 8.0 19.3 0.00 0.00 0.00 67 1009.6
20260830232055 26 271 11.3 19.3 0.00 0.00 0.00 63 1009.6
20260830231607 26 224 11.3 19.3 0.00 0.00 0.00 64 1009.7
20260830231055 26 290 6.4 19.3 0.00 0.00 0.00 61 1009.7
20260830230552 26 254 9.7 19.3 0.00 0.00 0.00 63 1009.7
20260830230106 27 188 8.0 16.1 0.00 0.00 0.00 62 1009.9
20260830225556 27 160 6.4 19.3 0.00 0.00 0.00 62 1009.8
20260830225056 26 183 6.4 19.3 0.00 0.00 0.00 63 1009.7
20260830224621 26 265 8.0 19.3 0.00 0.00 0.00 65 1009.9
20260830224056 26 282 11.3 20.9 0.00 0.00 0.00 63 1009.9
20260830223556 26 256 9.7 20.9 0.00 0.00 0.00 63 1009.9
20260830223103 27 251 8.0 19.3 0.00 0.00 0.00 63 1010.0
20260830222559 27 229 8.0 17.7 0.00 0.00 0.00 63 1010.1
20260830222052 27 265 8.0 16.1 0.00 0.00 0.00 63 1010.2
20260830221620 27 208 6.4 17.7 0.00 0.00 0.00 63 1010.2
20260830221052 27 192 9.7 17.7 0.00 0.00 0.00 64 1010.3
20260830220552 27 247 8.0 17.7 0.00 0.00 0.00 63 1010.5
20260830220104 27 181 6.4 19.3 0.00 0.00 0.00 64 1010.4
20260830215556 27 291 8.0 19.3 0.00 0.00 0.00 62 1010.5
20260830215056 27 273 9.7 19.3 0.00 0.00 0.00 65 1010.6
20260830214606 27 238 3.2 17.7 0.00 0.00 0.00 64 1010.7
20260830214052 27 250 11.3 17.7 0.00 0.00 0.00 63 1010.8
20260830213554 27 240 9.7 19.3 0.00 0.00 0.00 61 1010.9
20260830213102 27 144 4.8 22.5 0.00 0.00 0.00 62 1010.9
20260830212556 27 264 11.3 22.5 0.00 0.00 0.00 62 1011.0
20260830212058 27 200 8.0 17.7 0.00 0.00 0.00 63 1011.0
20260830211559 27 169 6.4 19.3 0.00 0.00 0.00 63 1011.1
20260830211059 27 186 9.7 19.3 0.00 0.00 0.00 64 1011.1
20260830210555 27 170 9.7 20.9 0.00 0.00 0.00 63 1011.1
20260830210110 27 315 9.7 20.9 0.00 0.00 0.00 62 1011.2
20260830205555 27 180 8.0 19.3 0.00 0.00 0.00 59 1011.2
20260830205058 27 209 6.4 20.9 0.00 0.00 0.00 63 1011.2
20260830204601 27 180 11.3 20.9 0.00 0.00 0.00 62 1011.3
20260830204058 27 213 8.0 17.7 0.00 0.00 0.00 63 1011.3
20260830203552 27 195 6.4 29.0 0.00 0.00 0.00 63 1011.3
20260830203102 27 250 11.3 29.0 0.00 0.00 0.00 62 1011.4
20260830202556 27 207 4.8 19.3 0.00 0.00 0.00 63 1011.3
20260830202056 27 211 8.0 19.3 0.00 0.00 0.00 61 1011.4
20260830201614 27 232 4.8 22.5 0.00 0.00 0.00 63 1011.4
20260830201056 27 209 8.0 22.5 0.00 0.00 0.00 65 1011.3
20260830200555 27 265 8.0 17.7 0.00 0.00 0.00 66 1011.3
20260830200113 27 238 8.0 16.1 0.00 0.00 0.00 65 1011.3
20260830195557 27 295 4.8 17.7 0.00 0.00 0.00 65 1011.2
20260830195059 26 206 8.0 20.9 0.00 0.00 0.00 66 1011.3
20260830194605 26 201 8.0 20.9 0.00 0.00 0.00 66 1011.4
20260830194058 26 222 8.0 22.5 0.00 0.00 0.00 66 1011.4
20260830193555 26 270 9.7 22.5 0.00 0.00 0.00 68 1011.4
20260830193110 26 284 12.9 22.5 0.00 0.00 0.00 68 1011.5
20260830192556 26 254 8.0 19.3 0.00 0.00 0.00 66 1011.5
20260830192058 26 194 9.7 17.7 0.00 0.00 0.00 65 1011.6
20260830191613 26 276 8.0 19.3 0.00 0.00 0.00 67 1011.7
20260830191055 27 281 6.4 19.3 0.00 0.00 0.00 66 1011.7
20260830190555 27 285 6.4 20.9 0.00 0.00 0.00 66 1011.7
20260830190109 26 269 8.0 20.9 0.00 0.00 0.00 68 1011.6
20260830185555 26 266 4.8 19.3 0.00 0.00 0.00 65 1011.6
20260830185056 26 169 8.0 19.3 0.00 0.00 0.00 65 1011.6
20260830184609 26 182 6.4 19.3 0.00 0.00 0.00 64 1011.6
20260830184052 27 141 8.0 16.1 0.00 0.00 0.00 64 1011.6
20260830183552 27 261 8.0 17.7 0.00 0.00 0.00 65 1011.6
20260830183105 27 199 6.4 17.7 0.00 0.00 0.00 64 1011.6
20260830182556 27 266 6.4 17.7 0.00 0.00 0.00 63 1011.6
20260830182056 27 206 6.4 16.1 0.00 0.00 0.00 61 1011.6
20260830181556 28 159 4.8 14.5 0.00 0.00 0.00 61 1011.6
20260830181055 27 203 3.2 11.3 0.00 0.00 0.00 61 1011.6
20260830180556 27 221 3.2 11.3 0.00 0.00 0.00 61 1011.6
20260830180107 27 229 4.8 11.3 0.00 0.00 0.00 60 1011.8
20260830175555 27 268 0.0 6.4 0.00 0.00 0.00 60 1011.7
20260830175055 27 0 0.0 11.3 0.00 0.00 0.00 61 1011.8
20260830174557 27 90 1.6 12.9 0.00 0.00 0.00 60 1011.8
20260830174055 27 191 3.2 12.9 0.00 0.00 0.00 60 1011.8
20260830173555 27 169 3.2 9.7 0.00 0.00 0.00 61 1011.7
20260830173112 27 182 4.8 9.7 0.00 0.00 0.00 62 1011.7
20260830172559 27 0 1.6 8.0 0.00 0.00 0.00 64 1011.7
20260830172055 26 293 0.0 6.4 0.00 0.00 0.00 67 1011.6
20260830171612 26 0 0.0 9.7 0.00 0.00 0.00 68 1011.5
20260830171055 26 218 1.6 9.7 0.00 0.00 0.00 68 1011.6
20260830170555 26 227 0.0 6.4 0.00 0.00 0.00 69 1011.7
20260830170106 26 0 0.0 11.3 0.00 0.00 0.00 70 1011.7
20260830165555 26 30 3.2 11.3 0.00 0.00 0.00 69 1011.7
20260830165052 26 101 4.8 9.7 0.00 0.00 0.00 68 1011.8
20260830164613 26 79 3.2 9.7 0.00 0.00 0.00 67 1011.6
20260830164055 26 193 3.2 9.7 0.00 0.00 0.00 70 1011.6
20260830163552 26 0 1.6 6.4 0.00 0.00 0.00 70 1011.6
20260830163103 26 360 1.6 6.4 0.00 0.00 0.00 69 1011.5
20260830162556 25 79 1.6 9.7 0.00 0.00 0.00 71 1011.6
20260830162057 25 0 3.2 9.7 0.00 0.00 0.00 72 1011.6
20260830161613 25 113 1.6 9.7 0.00 0.00 0.00 73 1011.6
20260830161056 25 100 3.2 6.4 0.00 0.00 0.00 73 1011.6
20260830160558 25 43 1.6 6.4 0.00 0.00 0.00 73 1011.6
20260830160100 25 50 0.0 9.7 0.00 0.00 0.00 74 1011.6
20260830155552 25 109 1.6 9.7 0.00 0.00 0.00 75 1011.6
20260830155052 24 123 0.0 11.3 0.00 0.00 0.00 76 1011.6
20260830154608 24 125 1.6 11.3 0.00 0.00 0.00 76 1011.5
20260830154059 24 107 3.2 11.3 0.00 0.00 0.00 75 1011.6
20260830153600 24 61 0.0 4.8 0.00 0.00 0.00 76 1011.5
20260830153105 24 175 1.6 9.7 0.00 0.00 0.00 77 1011.5
20260830152555 23 78 3.2 9.7 0.00 0.00 0.00 77 1011.5
20260830152056 23 101 1.6 6.4 0.00 0.00 0.00 77 1011.7
20260830151607 23 139 1.6 6.4 0.00 0.00 0.00 77 1011.6
20260830151056 23 41 0.0 6.4 0.00 0.00 0.00 77 1011.6
20260830150555 23 0 0.0 0.0 0.00 0.00 0.00 77 1011.6
20260830150101 23 0 0.0 1.6 0.00 0.00 0.00 78 1011.7
20260830145555 23 0 0.0 1.6 0.00 0.00 0.00 78 1011.6
20260830145055 22 0 0.0 0.0 0.00 0.00 0.00 80 1011.5
20260830144556 22 0 0.0 0.0 0.00 0.00 0.00 81 1011.5
20260830144052 21 0 0.0 0.0 0.00 0.00 0.00 83 1011.5
20260830143552 21 0 0.0 0.0 0.00 0.00 0.00 84 1011.5
20260830143114 21 0 0.0 0.0 0.00 0.00 0.00 84 1011.5
20260830142553 21 0 0.0 0.0 0.00 0.00 0.00 84 1011.4
20260830142057 20 0 0.0 0.0 0.00 0.00 0.00 83 1011.3
20260830141558 20 0 0.0 0.0 0.00 0.00 0.00 84 1011.4
20260830141058 20 0 0.0 0.0 0.00 0.00 0.00 84 1011.3
20260830140558 20 0 0.0 0.0 0.00 0.00 0.00 85 1011.3
20260830140100 20 0 0.0 0.0 0.00 0.00 0.00 85 1011.2
20260830135555 20 0 0.0 0.0 0.00 0.00 0.00 84 1011.1
20260830135055 20 0 0.0 0.0 0.00 0.00 0.00 84 1011.2
20260830134558 20 0 0.0 0.0 0.00 0.00 0.00 84 1011.2
20260830134052 20 0 0.0 0.0 0.00 0.00 0.00 84 1011.1
20260830133552 20 0 0.0 0.0 0.00 0.00 0.00 85 1010.9
20260830133101 20 0 0.0 0.0 0.00 0.00 0.00 85 1011.0
20260830132555 20 0 0.0 0.0 0.00 0.00 0.00 85 1010.9
20260830132056 20 0 0.0 0.0 0.00 0.00 0.00 84 1010.8
20260830131558 20 0 0.0 0.0 0.00 0.00 0.00 84 1010.8
20260830131056 20 0 0.0 0.0 0.00 0.00 0.00 85 1010.7
20260830130556 20 0 0.0 0.0 0.00 0.00 0.00 85 1010.7
20260830130107 20 0 0.0 0.0 0.00 0.00 0.00 85 1010.7
20260830125555 20 0 0.0 0.0 0.00 0.00 0.00 85 1010.7
20260830125055 20 0 0.0 0.0 0.00 0.00 0.00 85 1010.6
20260830124603 20 0 0.0 0.0 0.00 0.00 0.00 85 1010.7
20260830124055 20 0 0.0 0.0 0.00 0.00 0.00 85 1010.6
20260830123555 20 0 0.0 0.0 0.00 0.00 0.00 85 1010.6
20260830123125 20 0 0.0 1.6 0.00 0.00 0.00 86 1010.4
20260830122555 20 0 0.0 4.8 0.00 0.00 0.00 86 1010.2
20260830122100 20 0 0.0 4.8 0.00 0.00 0.00 86 1010.4